EW0765 Weather Reports


time (UTC)temp
C
wind
direction
speed
KPH
gust
KPH
rain 1hr
cm
rain 24hr
cm
rain mn
cm
humidity
%
barometer
mb
20260508074532 8 259 0.0 0.0 0.00 0.00 0.00 76 1012.4
20260508073021 8 262 0.0 8.0 0.00 0.00 0.00 75 1012.5
20260508071522 8 250 0.0 9.7 0.00 0.00 0.00 74 1012.6
20260508070019 8 223 0.0 16.1 0.00 0.00 0.00 72 1012.6
20260508064517 8 232 0.0 0.0 0.00 0.00 0.00 72 1012.6
20260508063016 8 227 0.0 0.0 0.00 0.00 0.00 72 1012.5
20260508061518 8 269 0.0 0.0 0.00 0.00 0.00 73 1012.6
20260508060014 8 269 0.0 0.0 0.00 0.00 0.00 73 1012.6
20260508054514 8 268 0.0 0.0 0.00 0.00 0.00 73 1012.8
20260508053021 8 268 0.0 0.0 0.00 0.00 0.00 72 1013.0
20260508051510 8 267 0.0 0.0 0.00 0.00 0.00 71 1013.2
20260508050009 8 259 0.0 0.0 0.00 0.00 0.00 72 1013.2
20260508044509 8 259 0.0 0.0 0.00 0.00 0.00 72 1013.2
20260508043007 8 259 0.0 0.0 0.00 0.00 0.00 72 1013.2
20260508041506 8 259 0.0 0.0 0.00 0.00 0.00 72 1013.2
20260508040004 8 259 0.0 0.0 0.00 0.00 0.00 71 1013.2
20260508034503 8 271 0.0 0.0 0.00 0.00 0.00 72 1013.2
20260508033002 7 271 0.0 0.0 0.00 0.00 0.00 72 1013.4
20260508031502 7 266 0.0 0.0 0.00 0.00 0.00 74 1013.3
20260508030001 7 266 0.0 0.0 0.00 0.00 0.00 72 1013.4
20260508024502 7 266 0.0 0.0 0.00 0.00 0.00 70 1013.3
20260508023000 7 266 0.0 0.0 0.00 0.00 0.00 67 1013.3
20260508021601 7 266 0.0 0.0 0.00 0.00 0.00 66 1013.3
20260508020100 8 267 0.0 0.0 0.00 0.00 0.00 65 1013.2
20260508014559 8 266 0.0 0.0 0.00 0.00 0.00 63 1013.1
20260508013059 9 266 0.0 0.0 0.00 0.00 0.00 62 1013.0
20260508011602 10 267 0.0 0.0 0.00 0.00 0.00 59 1012.8
20260508010058 10 266 0.0 0.0 0.00 0.00 0.00 58 1012.8
20260508004600 11 266 0.0 0.0 0.00 0.00 0.00 58 1012.7
20260508003105 11 266 0.0 0.0 0.00 0.00 0.00 57 1012.7
20260508001557 11 267 0.0 0.0 0.00 0.00 0.00 51 1012.7
20260508000056 11 262 0.0 9.7 0.00 0.00 0.00 49 1012.5
20260507234556 11 265 0.0 8.0 0.00 0.00 0.00 48 1012.5
20260507233102 12 279 1.6 17.7 0.00 0.00 0.00 46 1012.5
20260507231555 12 300 0.0 20.9 0.00 0.00 0.00 47 1012.4
20260507230055 12 241 1.6 25.7 0.00 0.00 0.00 46 1012.6
20260507224558 12 300 1.6 19.3 0.00 0.00 0.00 45 1012.7
20260507223056 13 228 1.6 12.9 0.00 0.00 0.00 45 1012.6
20260507221553 13 251 3.2 19.3 0.00 0.00 0.00 43 1012.7
20260507220052 13 296 1.6 12.9 0.00 0.00 0.00 43 1012.6
20260507214604 13 277 4.8 24.1 0.00 0.00 0.00 41 1012.4
20260507213102 13 219 0.0 17.7 0.00 0.00 0.00 44 1012.4
20260507211550 13 24 0.0 20.9 0.00 0.00 0.00 51 1012.4
20260507210051 13 209 0.0 17.7 0.00 0.00 0.00 52 1012.1
20260507204549 12 271 1.6 9.7 0.00 0.00 0.00 56 1012.1
20260507203048 12 252 0.0 4.8 0.00 0.00 0.00 57 1012.1
20260507201549 13 253 1.6 12.9 0.00 0.00 0.00 57 1012.1
20260507200049 13 236 0.0 8.0 0.00 0.00 0.00 53 1011.8
20260507194614 14 233 0.0 12.9 0.00 0.00 0.00 50 1011.9
20260507193046 14 203 0.0 16.1 0.00 0.00 0.00 49 1011.9
20260507191546 14 284 3.2 12.9 0.00 0.00 0.00 52 1012.1
20260507190050 13 304 1.6 12.9 0.00 0.00 0.00 53 1012.2
20260507184542 13 211 1.6 16.1 0.00 0.00 0.00 58 1012.2
20260507183046 13 227 1.6 9.7 0.00 0.00 0.00 56 1012.3
20260507181546 12 75 0.0 22.5 0.00 0.00 0.00 58 1012.3
20260507180040 13 288 0.0 4.8 0.00 0.00 0.00 56 1012.2
20260507174551 13 270 0.0 6.4 0.00 0.00 0.00 54 1012.3
20260507173054 13 319 0.0 6.4 0.00 0.00 0.00 53 1012.4
20260507171546 13 290 0.0 14.5 0.00 0.00 0.00 53 1012.6
20260507170035 14 265 0.0 9.7 0.00 0.00 0.00 57 1012.6
20260507164546 13 236 0.0 9.7 0.00 0.00 0.00 59 1012.6
20260507163032 12 287 0.0 9.7 0.00 0.00 0.00 61 1012.7
20260507161547 12 200 3.2 11.3 0.00 0.00 0.00 56 1012.8
20260507160037 12 275 0.0 11.3 0.00 0.00 0.00 54 1012.8
20260507154535 12 315 0.0 8.0 0.00 0.00 0.00 53 1012.7
20260507153029 13 256 3.2 11.3 0.00 0.00 0.00 53 1012.7
20260507151527 13 344 0.0 4.8 0.00 0.00 0.00 58 1012.9
20260507150026 12 306 0.0 4.8 0.00 0.00 0.00 57 1012.9
20260507144531 12 275 1.6 9.7 0.00 0.00 0.00 57 1012.8
20260507143025 12 246 0.0 6.4 0.00 0.00 0.00 61 1012.8
20260507141522 12 311 0.0 1.6 0.00 0.00 0.00 63 1012.9
20260507140017 11 241 0.0 4.8 0.00 0.00 0.00 66 1013.1
20260507134518 11 234 0.0 0.0 0.00 0.00 0.00 70 1013.2
20260507133013 10 275 3.2 9.7 0.00 0.00 0.00 70 1013.3
20260507131508 10 269 0.0 1.6 0.00 0.00 0.00 70 1013.4
20260507130005 9 246 0.0 4.8 0.00 0.00 0.00 74 1013.4
20260507124502 8 234 0.0 0.0 0.00 0.00 0.00 77 1013.4
20260507123058 8 253 0.0 4.8 0.00 0.00 0.00 77 1013.4
20260507121556 7 279 0.0 4.8 0.00 0.00 0.00 79 1013.3
20260507114607 6 267 0.0 4.8 0.00 0.00 0.00 82 1013.2
20260507113054 6 259 0.0 0.0 0.00 0.00 0.00 84 1013.1
20260507111556 6 259 0.0 0.0 0.00 0.00 0.00 84 1013.1
20260507104553 6 259 0.0 0.0 0.00 0.00 0.00 85 1012.8
20260507103053 6 259 0.0 0.0 0.00 0.00 0.00 85 1012.7
20260507101600 6 259 0.0 0.0 0.00 0.00 0.00 85 1012.7
20260507100052 6 259 0.0 0.0 0.00 0.05 0.00 85 1012.7
20260507094556 5 259 0.0 0.0 0.00 0.05 0.00 84 1012.7
20260507093050 5 259 0.0 0.0 0.00 0.05 0.00 85 1012.7
20260507091550 5 259 0.0 0.0 0.00 0.05 0.00 86 1012.8
20260507090054 5 46 0.0 0.0 0.00 0.15 0.00 87 1012.7
20260507084550 5 46 0.0 0.0 0.00 0.15 0.00 88 1012.8
20260507083047 5 46 0.0 0.0 0.00 0.15 0.00 88 1012.8
20260507081548 5 46 0.0 0.0 0.00 0.15 0.00 88 1013.0
20260507080045 5 46 0.0 0.0 0.00 0.33 0.00 87 1012.9